Flag for U.S.A. Weather past 2 weeks in Tampa, Florida, U.S.A.

Now
79 °F

Clear.


Feels Like: 82 °F
Forecast: 76 / 91 °F
Wind: 3 mph from Southeast

Location: Tampa International Airport

Current Time: Jul 7, 2015 at 1:12:37 AM

Latest Report: Jul 7, 2015 at 12:53 AM


Visibility: 10 mi

Pressure: 30.12 "Hg

Humidity: 72%

Dew point: 69 °F

Location of TampaLocation

Historic Weather in Tampa — Graph

°F

Tampa temperature yesterday

Maximum temperature yesterday: 89 °F (at 1:53 PM)
Minimum temperature yesterday: 76 °F (at 1:53 AM)
Average temperature yesterday: 82 °F

Past Weeks' High & Low Weather Summary

 TemperatureHumidityPressure
High92 °F (Jun 22, 4:53 PM)88% (Jun 23, 7:53 PM)30.19 "Hg (Jun 23, 7:53 PM)
Low74 °F (Jul 4, 8:53 PM)45% (Jul 1, 5:53 PM)29.99 "Hg (Jun 28, 3:53 AM)
Average84 °F69%30.10 "Hg
* Reported Jun 21 11:53 PM — Jul 6 11:53 PM, Tampa, Weather by CustomWeather, © 2015

Note: Actual official high and low records may vary slightly from our data, if they occured in-between our weather recording intervals... More about our weather records

Advertising

Tampa weather history for previous 24 hours

 ConditionsComfort  
Time TempWeatherWind HumidityBarometerVisibility
11:53 PM
Mon, Jul 6
79 °FMostly cloudy.3 mph72%30.14 "Hg10 mi
10:53 PM81 °FPassing clouds.5 mph67%30.14 "Hg10 mi
9:53 PM83 °FClear.8 mph68%30.14 "Hg10 mi
8:53 PM85 °FPartly sunny.No wind63%30.14 "Hg10 mi
7:53 PM85 °FPartly sunny.5 mph63%30.13 "Hg10 mi
6:53 PM86 °FBroken clouds.3 mph61%30.12 "Hg10 mi
5:53 PM88 °FBroken clouds.6 mph59%30.13 "Hg10 mi
4:53 PM84 °FBroken clouds.3 mph65%30.14 "Hg10 mi
3:53 PM80 °FPartly sunny.No wind71%30.14 "Hg10 mi
2:53 PM82 °FThunderstorms. Partly sunny.9 mph60%30.17 "Hg10 mi
2:04 PM87 °FThunderstorms. Partly sunny.9 mph63%30.16 "Hg10 mi
1:53 PM89 °FBroken clouds.8 mph63%30.16 "Hg10 mi
12:53 PM88 °FScattered clouds.7 mph63%30.18 "Hg10 mi
11:53 AM87 °FScattered clouds.5 mph61%30.19 "Hg10 mi
10:53 AM86 °FPassing clouds.6 mph67%30.19 "Hg10 mi
9:53 AM84 °FScattered clouds.3 mph67%30.18 "Hg10 mi
8:53 AM84 °FScattered clouds.No wind67%30.17 "Hg10 mi
7:53 AM79 °FBroken clouds.No wind74%30.15 "Hg10 mi
6:53 AM77 °FPartly cloudy.No wind77%30.14 "Hg10 mi
5:53 AM78 °FPassing clouds.No wind76%30.12 "Hg10 mi
4:53 AM77 °FPassing clouds.3 mph77%30.12 "Hg10 mi
3:53 AM77 °FPassing clouds.5 mph74%30.12 "Hg10 mi
2:53 AM76 °FPassing clouds.No wind80%30.14 "Hg10 mi
1:53 AM76 °FPassing clouds.5 mph80%30.16 "Hg10 mi
Weather by CustomWeather, © 2015

See weather overviewHow to use our weather pages